Temp
21 21 22 24 24 25 25 26 27 29 30 28 28 28 29 31 31 31 30 30 30 29 29 26 23 21 20 19 15 13 12 12 12 12 12 11 11 11 11 12 12 12 12 13
23 21 24 25 25 24 24 25 25 27 28 28 27 27 29 30 31 31 31 31 30 29 28 26 23 20 19 18 16 13 12 12 12 12 12 12 11 11 11 11 12 13 13 14
22 24 25 23 23 21 23 24 24 25 28 29 27 27 28 30 30 31 31 31 31 30 28 26 24 20 17 18 16 14 13 13 13 12 12 11 11 11 11 11 13 14 14 15
23 24 24 23 23 23 22 25 24 25 25 25 28 26 28 30 31 31 31 30 30 31 29 27 24 21 18 18 17 15 13 13 13 12 12 12 12 12 12 12 13 13 14 14
22 22 22 21 23 23 23 25 24 24 25 25 26 26 27 29 30 30 31 31 30 30 29 28 25 23 21 19 17 15 13 13 13 12 12 12 12 13 13 13 14 14 13 14
21 24 22 23 22 22 23 23 24 24 24 23 25 26 27 29 30 30 31 31 31 31 30 29 26 24 22 19 17 15 14 13 12 12 12 12 12 12 13 13 13 13 13 14
19 21 22 22 21 22 21 22 21 22 22 23 27 27 27 30 30 31 30 31 31 31 30 29 27 25 23 20 18 15 14 13 12 12 12 12 12 12 13 13 13 13 13 13
19 20 21 23 22 22 22 22 21 21 23 25 28 26 28 30 31 31 31 31 31 30 30 29 28 25 23 21 18 15 15 14 13 12 13 13 12 13 13 13 13 13 14 14
21 21 24 22 23 23 23 21 23 23 24 23 25 27 29 29 29 30 30 30 30 30 30 29 28 26 23 21 19 16 15 15 13 13 13 13 13 13 14 13 13 14 14 15
20 19 23 22 23 22 21 25 21 23 21 21 24 26 27 28 28 29 29 30 30 31 30 29 28 26 24 22 20 18 16 15 14 14 13 13 14 14 14 14 14 15 15 16
20 19 21 22 21 22 21 22 23 23 23 22 23 26 29 29 29 29 29 29 29 30 30 29 28 27 25 22 21 19 18 17 17 14 14 14 14 15 15 15 15 15 15 16
18 18 19 21 23 24 24 23 23 21 22 24 24 24 29 28 29 29 29 28 28 28 30 30 29 28 25 23 22 20 18 18 19 17 16 15 15 15 15 16 16 15 16 16
17 17 17 19 21 22 22 22 23 23 23 22 22 24 28 29 28 28 28 29 29 28 28 28 28 27 26 24 22 21 19 19 19 19 18 17 16 16 16 16 16 16 16 16
15 17 17 17 17 20 20 22 22 22 22 22 22 24 26 27 28 28 28 29 29 29 28 28 27 27 26 25 23 22 20 20 20 19 19 18 18 17 17 16 16 16 16 16
16 15 17 18 19 19 20 20 21 21 21 21 22 24 25 26 27 27 28 29 28 28 29 28 27 27 27 25 24 23 22 21 20 20 19 19 18 18 17 17 17 16 16 16
15 15 16 17 18 19 19 20 21 21 22 22 22 23 26 27 27 27 28 28 28 28 28 28 27 27 26 26 24 24 23 21 20 20 19 19 18 18 18 17 17 17 16 16
14 14 13 14 18 18 17 20 21 21 21 21 22 23 25 26 26 26 26 27 27 27 27 27 27 27 27 26 25 24 23 22 21 20 20 19 18 18 18 17 17 17 16 16
13 14 13 14 15 14 19 20 18 17 18 20 22 24 25 26 27 27 27 27 25 25 25 25 26 25 26 26 25 24 23 23 21 21 20 20 19 19 18 18 18 18 17 16
14 14 11 13 15 17 18 20 18 17 16 19 22 25 26 26 26 26 27 25 24 23 23 23 22 22 23 24 25 25 23 23 22 21 21 20 20 19 19 19 18 18 16 12
16 15 13 14 14 15 17 19 17 17 16 15 17 21 23 23 22 21 23 22 22 22 22 20 20 19 20 22 23 25 23 23 22 21 21 21 20 19 19 19 12 9 10 9
14 13 12 13 14 16 17 19 18 15 13 13 14 18 16 22 22 21 22 22 21 20 19 18 18 18 17 20 20 22 23 23 22 21 20 20 19 17 12 9 8 7 5 3
14 12 12 13 14 13 18 18 15 13 14 14 13 14 15 14 22 22 21 20 19 18 17 16 14 13 14 16 17 19 16 11 11 9 9 8 9 8 7 6 4 3 1 -0
13 14 14 16 16 14 17 15 15 15 15 16 16 17 17 18 21 22 20 19 16 14 13 11 10 8 8 10 10 8 7 7 7 6 4 4 4 3 3 2 0 -0 -1 -2
17 15 11 12 13 13 16 14 15 15 14 14 16 18 19 19 21 21 19 17 14 11 10 8 7 6 5 5 5 5 4 4 3 1 1 0 0 -0 -0 -0 -0 -1 -2 -2
17 15 17 17 14 15 13 14 13 14 14 13 14 16 16 18 18 18 15 12 9 7 5 5 4 3 3 3 3 3 2 2 1 -0 -1 -1 -2 -3 -3 -3 -3 -3 -2 -3
14 13 15 13 12 13 14 13 11 12 12 11 11 12 13 14 13 11 7 5 4 3 2 2 1 1 0 0 0 1 1 0 -0 -1 -2 -2 -3 -3 -4 -4 -5 -4 -4 -3
Height
735 740 731 722 719 717 717 714 704 693 680 694 699 696 686 676 674 675 680 680 681 686 690 700 710 719 722 728 735 738 742 745 748 750 753 758 762 767 772 775 781 790 798 804
725 729 718 712 712 718 724 719 713 699 689 693 700 696 683 674 670 669 668 670 674 680 687 696 707 717 721 725 731 737 741 744 748 751 756 760 764 770 777 781 787 794 798 802
721 708 706 715 719 730 718 718 714 710 692 684 697 697 685 668 663 662 661 660 663 670 682 691 701 713 721 723 728 734 739 744 746 751 756 763 770 775 779 783 788 793 797 799
710 704 709 712 713 715 721 706 708 709 707 711 685 699 676 658 652 653 656 661 662 662 671 682 694 705 714 718 725 731 736 741 746 749 754 759 763 769 775 780 785 789 793 799
710 709 712 717 706 705 710 702 709 705 700 703 697 698 676 660 660 655 650 651 654 657 664 674 686 697 706 712 721 727 733 738 743 747 752 757 763 768 773 778 783 789 794 796
709 695 703 699 703 704 705 707 706 701 702 712 692 688 675 660 649 648 643 641 645 652 658 667 679 691 700 709 717 724 729 734 740 744 749 754 760 766 773 777 782 786 791 795
718 707 700 699 706 703 711 712 718 716 712 705 673 674 666 643 638 639 642 642 641 646 654 663 672 684 693 702 711 720 725 730 735 740 746 750 756 763 768 774 778 782 788 792
710 709 697 688 694 697 701 706 711 713 694 680 650 672 660 640 635 635 636 637 639 645 650 657 665 678 687 696 705 715 720 724 730 736 741 748 753 759 764 769 774 779 783 789
693 690 670 683 687 691 690 702 692 695 683 696 676 658 644 637 639 638 638 638 640 640 645 652 658 671 681 690 698 705 716 720 725 731 737 743 748 753 758 764 770 774 779 784
697 703 679 679 680 686 691 678 702 695 710 708 680 667 657 645 643 639 640 638 635 633 637 646 654 664 676 686 694 701 709 716 720 726 731 737 742 747 752 758 763 768 773 779
698 701 687 681 686 683 689 689 684 685 688 696 690 662 628 633 636 639 640 638 636 633 631 640 649 658 670 681 688 696 702 709 714 720 725 731 736 741 746 750 754 759 765 770
705 701 699 687 670 668 669 677 681 694 693 675 679 674 633 637 636 637 640 639 639 636 632 635 644 653 665 674 681 689 697 701 706 711 718 724 729 733 738 742 746 752 757 762
715 708 704 691 684 676 680 676 672 675 679 684 685 673 632 633 639 639 640 636 635 637 638 639 644 649 658 666 674 681 689 694 699 705 710 715 721 726 729 734 739 745 750 755
724 712 708 704 707 689 684 677 677 678 682 682 678 668 647 647 641 640 638 636 635 636 640 640 644 648 653 660 666 673 680 686 690 695 701 706 711 717 723 729 734 739 744 749
718 717 707 700 691 692 688 686 683 682 679 681 672 663 652 646 642 642 633 633 640 639 636 639 641 644 649 654 660 666 672 678 685 691 695 698 704 710 716 722 727 732 737 742
719 716 711 705 695 691 688 681 676 670 671 669 667 660 640 635 634 634 635 635 637 636 634 638 638 641 644 649 655 660 666 672 679 683 688 694 699 705 708 713 718 723 729 734
723 722 723 715 695 689 689 676 669 669 666 664 663 653 641 638 635 638 638 636 636 633 635 637 639 638 639 644 650 654 660 666 671 677 682 687 692 698 703 708 711 715 720 726
727 722 725 716 710 709 675 669 679 681 678 665 654 638 635 631 628 629 628 629 636 638 640 639 637 641 639 640 644 651 655 660 665 670 675 680 684 688 695 700 704 709 714 719
719 719 728 718 704 688 677 666 676 677 677 662 640 623 625 624 625 626 625 634 642 645 645 644 644 641 639 635 639 644 649 654 660 662 666 672 676 681 686 691 698 703 707 711
701 710 716 708 706 690 675 667 675 674 675 675 664 639 632 633 647 650 639 643 645 647 648 647 645 644 639 638 636 641 643 649 655 660 664 669 673 678 683 687 691 695 701 708
697 706 714 708 701 689 674 666 670 682 691 685 678 660 660 643 642 647 644 646 647 652 651 648 647 646 644 639 635 639 643 647 652 656 663 668 670 676 680 685 692 697 702 710
695 705 708 704 698 698 673 667 682 693 689 686 682 677 669 664 642 640 645 648 653 655 655 651 651 651 649 645 641 643 647 656 658 651 663 670 674 676 684 690 696 701 705 712
694 694 691 685 685 692 680 685 689 689 687 682 678 669 667 657 644 642 647 654 660 664 664 663 658 657 654 652 647 652 656 660 661 663 671 675 683 686 691 695 700 706 710 713
672 683 702 701 693 694 687 692 691 691 690 684 679 663 657 652 645 643 651 660 668 673 673 671 669 663 667 662 663 665 666 666 666 672 678 679 690 694 696 702 699 710 720 722
675 681 671 672 689 686 698 694 700 696 690 689 683 672 672 661 657 656 665 674 679 682 682 682 681 669 673 672 674 675 675 670 673 676 683 684 694 699 701 707 711 719 721 729
685 692 680 688 697 698 691 696 703 700 697 697 692 685 682 678 675 679 686 691 691 691 692 692 690 685 684 681 681 685 683 681 678 683 691 694 698 704 707 714 717 729 736 738
Wind_Speed
19 17 23 24 23 24 21 24 23 18 12 5 11 18 18 16 16 15 15 16 13 14 13 16 17 15 13 13 15 15 16 17 15 23 23 26 28 28 30 39 40 34 27 31
13 24 28 23 22 19 24 26 24 20 22 11 14 20 20 20 19 18 18 16 13 14 13 15 19 17 15 16 16 17 17 20 20 23 25 25 28 28 29 30 29 28 29 28
21 10 24 20 20 21 25 24 21 24 22 16 14 21 23 23 24 21 20 14 13 15 16 17 17 20 17 17 18 19 19 20 19 26 29 25 25 23 22 26 28 26 29 29
19 21 13 17 24 23 22 21 22 20 19 15 17 15 17 15 12 19 15 15 16 14 16 18 18 21 22 20 18 19 20 22 22 29 29 33 31 26 25 28 29 27 27 21
18 16 20 22 21 17 21 16 17 21 20 17 20 15 16 17 19 15 15 18 16 14 16 19 19 23 23 21 21 22 21 22 24 25 30 31 30 27 24 24 28 27 21 22
22 7 9 18 14 15 17 16 16 14 12 16 18 16 13 14 16 13 12 13 16 14 15 18 21 23 23 22 22 23 24 25 26 28 30 32 31 30 26 26 25 25 23 27
19 22 17 12 12 17 17 14 9 11 11 13 17 13 13 10 5 4 8 7 10 12 14 17 20 19 24 25 24 25 27 27 28 30 30 32 33 33 31 33 29 28 27 24
13 11 28 21 18 11 18 17 8 11 10 10 20 9 10 13 13 15 12 8 3 7 12 18 20 19 24 27 27 26 29 28 30 31 30 32 30 35 30 28 31 31 32 34
4 12 2 12 25 21 17 17 19 22 17 9 9 8 8 11 10 8 7 9 11 14 14 18 19 21 25 28 29 31 28 29 30 31 31 31 32 34 35 31 32 31 35 36
5 9 6 13 12 22 24 15 12 12 16 17 13 17 14 5 9 11 9 6 8 12 14 16 18 20 25 27 28 29 30 30 31 31 31 32 33 31 34 34 37 35 37 39
4 6 2 5 10 13 14 20 16 12 13 11 9 7 10 4 8 5 5 6 6 8 11 17 17 22 25 26 28 29 30 30 31 33 31 31 33 34 33 34 36 37 38 39
4 5 7 11 3 9 13 16 18 12 16 12 14 15 9 2 5 7 5 5 4 3 8 14 17 17 24 27 28 29 30 31 32 33 34 34 33 34 35 34 33 37 37 39
9 2 6 12 10 11 10 11 12 15 16 20 13 10 4 13 8 7 7 3 6 5 4 9 13 17 19 26 28 29 31 32 32 32 32 34 34 35 36 36 35 34 34 35
6 8 10 11 10 10 6 10 9 13 13 14 17 20 20 9 11 5 8 5 6 5 4 7 12 15 17 25 28 30 31 32 32 34 34 32 33 35 35 34 34 33 34 33
6 11 12 15 19 16 16 14 14 18 17 18 17 20 18 18 18 20 15 6 7 9 4 4 9 13 16 21 25 27 30 32 32 32 33 33 32 32 32 31 32 32 33 33
2 7 8 13 15 20 21 20 21 19 19 23 22 25 20 14 13 14 16 16 11 10 9 4 5 10 13 17 24 26 26 30 31 32 31 31 31 31 30 30 31 30 31 32
6 5 3 12 15 11 13 20 21 17 17 20 21 21 21 18 13 14 12 13 16 8 9 9 6 6 9 17 21 25 28 28 31 31 31 30 30 30 29 30 30 30 29 29
9 11 6 5 9 10 10 5 3 7 13 20 25 25 21 19 12 14 14 8 6 9 10 10 5 5 7 11 18 21 24 28 29 30 31 31 31 30 29 29 29 27 27 28
19 13 4 4 8 14 21 10 3 5 15 20 22 21 18 20 18 16 11 5 3 6 8 7 10 13 10 6 14 20 22 25 27 29 30 30 29 29 29 29 27 26 21 23
20 17 11 8 9 6 5 5 6 6 8 17 23 17 3 5 8 2 10 7 6 7 8 9 10 12 12 8 6 16 19 21 22 22 24 25 25 24 23 21 20 20 21 20
14 12 13 12 11 9 3 8 8 3 7 22 22 16 18 5 7 2 4 6 6 7 10 12 11 9 10 8 3 9 15 19 20 18 17 17 16 15 17 19 19 22 25 26
9 10 7 12 10 13 10 2 2 2 6 5 9 14 17 23 6 7 8 8 6 8 10 12 10 12 14 9 1 5 9 11 11 21 19 17 16 18 18 22 23 26 29 30
7 9 3 4 6 4 8 13 10 11 10 11 13 10 11 16 10 7 5 7 8 9 9 10 10 13 18 16 15 16 12 12 18 23 23 23 21 21 21 24 24 23 24 25
4 12 5 3 5 6 9 10 12 12 13 15 16 15 13 15 12 9 7 7 9 9 9 9 10 16 15 17 15 13 16 23 28 27 25 29 26 27 26 23 27 23 18 20
4 3 8 6 13 11 9 11 11 14 14 16 17 17 16 15 13 10 9 9 9 10 13 13 8 17 18 19 18 15 15 25 27 28 26 30 28 29 34 34 29 26 23 20
7 7 4 4 8 7 10 12 15 14 15 14 15 15 14 15 12 12 12 12 13 14 14 15 19 17 17 21 24 19 18 19 27 26 23 24 27 28 31 34 42 40 34 32
Wind_Direction
200 218 226 229 223 246 248 256 263 273 265 289 260 273 270 269 243 250 226 238 226 218 199 190 180 192 187 176 167 166 159 164 159 149 138 136 137 143 146 152 157 167 174 180
206 231 238 232 241 235 248 258 260 263 273 236 261 269 271 265 258 251 247 242 222 205 197 185 178 191 195 182 182 172 165 168 165 154 155 149 147 145 147 155 167 178 179 176
229 234 232 235 222 240 243 247 251 256 270 274 255 265 261 259 251 253 252 239 247 202 195 189 180 192 195 193 186 177 173 171 159 160 157 153 149 157 164 163 167 169 170 167
243 251 247 226 231 220 244 241 249 263 268 265 258 276 277 273 256 225 234 229 240 218 190 189 186 192 190 192 190 182 176 174 172 168 161 165 168 174 180 174 172 166 174 177
230 230 233 235 229 231 249 251 247 257 256 266 255 252 263 257 254 239 235 212 216 218 192 188 187 191 193 183 184 182 179 176 179 171 173 166 177 182 180 177 172 180 193 187
248 214 257 242 229 232 239 247 244 257 250 249 248 252 257 256 236 220 238 223 207 207 192 189 183 186 187 180 181 179 181 179 179 178 176 178 177 182 181 187 185 189 194 201
238 248 236 231 220 223 229 227 230 220 227 246 251 230 233 257 357 240 161 206 205 201 194 192 179 183 183 178 180 179 182 180 180 181 184 179 184 182 182 188 194 193 195 203
203 229 224 213 223 194 204 204 227 217 238 259 230 222 239 243 253 239 232 248 200 189 197 192 185 183 187 179 180 186 188 185 183 184 189 191 184 191 191 188 190 194 196 203
280 239 37 217 219 240 199 213 235 267 276 272 269 247 217 240 244 238 209 217 228 218 196 200 190 183 188 182 184 184 192 190 188 190 190 192 194 197 199 195 196 200 203 205
283 274 226 194 222 215 237 238 228 236 256 262 250 243 249 153 206 210 200 246 277 227 200 195 195 183 187 185 185 185 190 195 190 191 192 195 199 197 199 202 202 201 205 207
300 254 240 173 209 217 206 229 238 250 228 255 276 269 20 145 193 264 37 359 307 261 219 188 197 183 185 185 184 188 190 193 192 192 193 195 199 201 200 201 204 208 208 211
23 304 259 250 272 233 237 217 229 235 242 247 239 258 309 336 233 120 315 102 45 303 221 191 193 183 185 187 188 187 194 193 198 190 193 198 198 201 204 205 202 205 209 210
349 230 269 234 239 249 242 239 244 239 250 260 269 244 288 228 208 242 286 27 96 50 167 189 192 190 190 190 192 190 194 198 198 196 194 194 199 201 203 207 207 205 206 210
310 266 268 284 324 325 265 242 264 273 249 253 251 263 273 280 274 249 265 267 339 39 113 199 195 203 199 198 195 195 195 200 197 197 198 199 201 203 205 207 209 210 210 212
246 262 266 269 284 279 275 270 263 258 263 263 269 257 254 258 261 263 272 262 278 298 306 186 213 203 206 205 201 199 198 199 199 201 201 202 201 204 207 208 207 210 212 215
313 266 276 270 275 274 269 262 262 266 267 268 266 271 268 267 275 286 255 272 282 269 279 332 205 214 207 211 208 205 201 197 200 202 205 204 202 206 205 203 205 206 207 213
266 262 253 258 257 302 263 247 258 284 296 289 267 254 269 273 241 248 269 266 266 301 311 305 284 246 226 212 213 215 210 199 200 206 206 205 202 206 208 206 205 206 205 208
240 239 237 277 292 261 244 128 222 285 294 299 267 263 248 263 262 247 250 265 321 314 301 301 282 280 241 229 217 217 214 212 204 206 208 207 204 205 206 207 206 203 201 202
218 231 244 242 243 275 289 234 285 280 308 297 330 243 232 246 256 261 258 80 317 313 325 341 314 306 281 224 236 211 211 212 210 209 208 207 204 204 204 203 202 203 186 165
213 215 223 225 247 265 39 100 178 268 250 13 332 356 59 282 231 32 43 43 16 2 352 345 336 313 296 244 201 226 212 212 212 211 211 208 203 203 204 201 155 138 150 155
192 196 220 231 244 273 316 19 150 267 336 339 319 342 335 28 41 52 345 309 5 9 7 355 357 351 344 313 204 230 218 219 211 196 212 203 190 181 150 144 148 151 145 142
191 192 205 236 242 250 358 65 22 332 276 293 327 339 328 323 323 19 38 32 21 358 2 21 22 19 3 349 276 209 83 68 92 105 102 102 114 132 139 148 144 139 134 125
169 203 236 229 227 20 31 61 28 4 348 337 328 296 256 276 335 320 43 33 37 28 17 23 44 34 25 21 57 77 74 102 107 107 102 103 113 116 120 116 113 110 117 113
281 150 156 228 327 337 353 32 12 355 349 346 333 327 341 327 328 332 65 40 51 34 25 28 57 60 37 42 58 85 106 109 102 90 86 90 85 83 82 86 99 97 93 103
314 273 242 236 138 229 118 25 20 347 359 359 348 354 3 351 28 44 55 49 51 47 29 25 37 69 43 51 57 70 93 110 99 97 98 92 88 87 83 76 75 79 95 104
9 3 332 33 36 345 0 5 16 354 353 4 357 360 11 11 29 52 53 41 41 43 44 49 38 48 56 56 50 56 74 93 98 88 85 94 98 96 93 91 84 83 91 99